,,,PA_Meas_PMT16A,,PR_Meas_QMR101_102,,RH_Meas_QMH101,,SR_Meas_QMS101,,TA_Meas_QMH101,,GenWind,,GenWind,
date,time,status,PA,status,PR,status,RH,status,SR,status,TA,status,DirAvg,status,SpdAvg,
2008-03-09, 00:00:05,VALID,1005.52,VALID,0,VALID,93.7284,VALID,0,VALID,24.2115,VALID,79,VALID,0.0347656,
2008-03-09, 00:01:05,VALID,1005.52,VALID,0,VALID,93.7055,VALID,0,VALID,24.192,VALID,79,VALID,0,
2008-03-09, 00:02:05,VALID,1005.51,VALID,0,VALID,93.7513,VALID,0,VALID,24.1726,VALID,79,VALID,0,
2008-03-09, 00:03:05,VALID,1005.55,VALID,0,VALID,93.8276,VALID,0,VALID,24.1744,VALID,79,VALID,0.259375,
2008-03-09, 00:04:05,VALID,1005.52,VALID,0,VALID,93.9115,VALID,0,VALID,24.1549,VALID,79,VALID,0.279297,
2008-03-09, 00:05:05,VALID,1005.55,VALID,0,VALID,93.9344,VALID,0,VALID,24.1142,VALID,79,VALID,0,
2008-03-09, 00:06:05,VALID,1005.53,VALID,0,VALID,93.9725,VALID,0,VALID,24.0947,VALID,79,VALID,0,
2008-03-09, 00:07:05,VALID,1005.54,VALID,0,VALID,93.9268,VALID,0,VALID,24.0965,VALID,79,VALID,0,
2008-03-09, 00:08:05,VALID,1005.54,VALID,0,VALID,93.9649,VALID,0,VALID,24.0363,VALID,79,VALID,0.379297,
2008-03-09, 00:09:05,VALID,1005.53,VALID,0,VALID,94.1328,VALID,0,VALID,24.0381,VALID,77,VALID,0.278125,
2008-03-09, 00:10:05,VALID,1005.48,VALID,0,VALID,94.3464,VALID,0,VALID,23.9973,VALID,77,VALID,0.176953,
2008-03-09, 00:11:05,VALID,1005.45,VALID,0,VALID,94.3921,VALID,0,VALID,24.0186,VALID,77,VALID,0,
2008-03-09, 00:12:05,VALID,1005.45,VALID,0,VALID,94.3769,VALID,0,VALID,23.9973,VALID,77,VALID,0,
2008-03-09, 00:13:05,VALID,1005.43,VALID,0,VALID,94.4455,VALID,0,VALID,23.9779,VALID,77,VALID,0.0015625,
2008-03-09, 00:14:05,VALID,1005.44,VALID,0,VALID,94.3769,VALID,0,VALID,23.9584,VALID,77,VALID,0.19375,
2008-03-09, 00:15:05,VALID,1005.39,VALID,0,VALID,94.4074,VALID,0,VALID,23.9602,VALID,77,VALID,0,
2008-03-09, 00:16:05,VALID,1005.4,VALID,0,VALID,94.4379,VALID,0,VALID,23.9195,VALID,77,VALID,0,
2008-03-09, 00:17:05,VALID,1005.43,VALID,0,VALID,94.5752,VALID,0,VALID,23.9,VALID,77,VALID,0,
2008-03-09, 00:18:05,VALID,1005.4,VALID,0,VALID,94.5981,VALID,0,VALID,23.8805,VALID,77,VALID,0,
2008-03-09, 00:19:05,VALID,1005.41,VALID,0,VALID,94.6134,VALID,0,VALID,23.8805,VALID,77,VALID,0,
2008-03-09, 00:20:05,VALID,1005.38,VALID,0,VALID,94.6591,VALID,0,VALID,23.8611,VALID,77,VALID,0,
2008-03-09, 00:21:05,VALID,1005.39,VALID,0,VALID,94.7354,VALID,0,VALID,23.9018,VALID,77,VALID,0,
2008-03-09, 00:22:05,VALID,1005.39,VALID,0,VALID,94.7583,VALID,0,VALID,23.8805,VALID,77,VALID,0,
2008-03-09, 00:23:05,VALID,1005.33,VALID,0,VALID,94.7125,VALID,0,VALID,23.8805,VALID,77,VALID,0,
2008-03-09, 00:24:05,VALID,1005.33,VALID,0,VALID,94.6744,VALID,0,VALID,23.8611,VALID,77,VALID,0,
2008-03-09, 00:25:05,VALID,1005.31,VALID,0,VALID,94.5447,VALID,0,VALID,23.8416,VALID,77,VALID,0,
2008-03-09, 00:26:05,VALID,1005.31,VALID,0,VALID,94.5218,VALID,0,VALID,23.8416,VALID,77,VALID,0,
2008-03-09, 00:27:05,VALID,1005.27,VALID,0,VALID,94.5295,VALID,0,VALID,23.8239,VALID,77,VALID,0,
2008-03-09, 00:28:05,VALID,1005.24,VALID,0,VALID,94.5066,VALID,0,VALID,23.8239,VALID,77,VALID,0,
2008-03-09, 00:29:05,VALID,1005.21,VALID,0,VALID,94.5142,VALID,0,VALID,23.7637,VALID,77,VALID,0,
2008-03-09, 00:30:05,VALID,1005.18,VALID,0,VALID,94.56,VALID,0,VALID,23.7637,VALID,77,VALID,0,
2008-03-09, 00:31:05,VALID,1005.18,VALID,0,VALID,94.6134,VALID,0,VALID,23.7637,VALID,77,VALID,0,
2008-03-09, 00:32:05,VALID,1005.16,VALID,0,VALID,94.5829,VALID,0,VALID,23.7248,VALID,77,VALID,0,
2008-03-09, 00:33:05,VALID,1005.15,VALID,0,VALID,94.56,VALID,0,VALID,23.7266,VALID,77,VALID,0,
2008-03-09, 00:34:05,VALID,1005.15,VALID,0,VALID,94.4837,VALID,0,VALID,23.6664,VALID,77,VALID,0,
2008-03-09, 00:35:05,VALID,1005.16,VALID,0,VALID,94.56,VALID,0,VALID,23.6487,VALID,77,VALID,0,
2008-03-09, 00:36:05,VALID,1005.15,VALID,0,VALID,94.6134,VALID,0,VALID,23.6293,VALID,77,VALID,0,
2008-03-09, 00:37:05,VALID,1005.18,VALID,0,VALID,94.6668,VALID,0,VALID,23.6098,VALID,77,VALID,0,
2008-03-09, 00:38:05,VALID,1005.17,VALID,0,VALID,94.6973,VALID,0,VALID,23.5903,VALID,77,VALID,0,
2008-03-09, 00:39:04,VALID,1005.2,VALID,0,VALID,94.827,VALID,0,VALID,23.5691,VALID,77,VALID,0,
2008-03-09, 00:40:04,VALID,1005.16,VALID,0,VALID,94.9719,VALID,0,VALID,23.5903,VALID,77,VALID,0,
2008-03-09, 00:41:04,VALID,1005.19,VALID,0,VALID,95.0406,VALID,0,VALID,23.5691,VALID,77,VALID,0,
2008-03-09, 00:42:04,VALID,1005.18,VALID,0,VALID,95.0635,VALID,0,VALID,23.5903,VALID,77,VALID,0,
2008-03-09, 00:43:04,VALID,1005.18,VALID,0,VALID,95.1703,VALID,0,VALID,23.5691,VALID,77,VALID,0,
2008-03-09, 00:44:04,VALID,1005.17,VALID,0,VALID,95.1932,VALID,0,VALID,23.5691,VALID,77,VALID,0,
2008-03-09, 00:45:04,VALID,1005.14,VALID,0,VALID,95.1321,VALID,0,VALID,23.5709,VALID,77,VALID,0,
2008-03-09, 00:46:04,VALID,1005.14,VALID,0,VALID,95.0482,VALID,0,VALID,23.5107,VALID,77,VALID,0,
2008-03-09, 00:47:04,VALID,1005.14,VALID,0,VALID,94.9719,VALID,0,VALID,23.4912,VALID,77,VALID,0,
2008-03-09, 00:48:04,VALID,1005.15,VALID,0,VALID,94.9872,VALID,0,VALID,23.4523,VALID,77,VALID,0,
2008-03-09, 00:49:04,VALID,1005.14,VALID,0,VALID,94.8804,VALID,0,VALID,23.4328,VALID,69,VALID,0,
2008-03-09, 00:50:04,VALID,1005.14,VALID,0,VALID,94.9185,VALID,0,VALID,23.4151,VALID,62,VALID,0,
2008-03-09, 00:51:04,VALID,1005.14,VALID,0,VALID,95.2237,VALID,0,VALID,23.3939,VALID,62,VALID,0,
2008-03-09, 00:52:04,VALID,1005.15,VALID,0,VALID,95.2923,VALID,0,VALID,23.4134,VALID,62,VALID,0,
2008-03-09, 00:53:04,VALID,1005.11,VALID,0,VALID,95.3305,VALID,0,VALID,23.4134,VALID,62,VALID,0,
2008-03-09, 00:54:04,VALID,1005.04,VALID,0,VALID,95.3381,VALID,0,VALID,23.3921,VALID,62,VALID,0,
2008-03-09, 00:55:04,VALID,1005.04,VALID,0,VALID,95.3763,VALID,0,VALID,23.4134,VALID,62,VALID,0,
2008-03-09, 00:56:04,VALID,1005,VALID,0,VALID,95.3915,VALID,0,VALID,23.4328,VALID,62,VALID,0,
2008-03-09, 00:57:04,VALID,1004.99,VALID,0,VALID,95.2847,VALID,0,VALID,23.3939,VALID,62,VALID,0,
2008-03-09, 00:58:04,VALID,1004.95,VALID,0,VALID,95.2008,VALID,0,VALID,23.3744,VALID,62,VALID,0,
2008-03-09, 00:59:04,VALID,1004.93,VALID,0,VALID,95.1932,VALID,0,VALID,23.3762,VALID,61,VALID,0,
2008-03-09, 01:00:04,VALID,1004.87,VALID,0,VALID,95.155,VALID,0,VALID,23.3355,VALID,61,VALID,0,
2008-03-09, 01:01:04,VALID,1004.87,VALID,0,VALID,95.2771,VALID,0,VALID,23.3355,VALID,61,VALID,0,
2008-03-09, 01:02:04,VALID,1004.86,VALID,0,VALID,95.3763,VALID,0,VALID,23.3567,VALID,61,VALID,0,
2008-03-09, 01:03:04,VALID,1004.83,VALID,0,VALID,95.4068,VALID,0,VALID,23.3355,VALID,46,VALID,0,
2008-03-09, 01:04:04,VALID,1004.84,VALID,0,VALID,95.4983,VALID,0,VALID,23.3355,VALID,12,VALID,0,
2008-03-09, 01:05:04,VALID,1004.82,VALID,0,VALID,95.6509,VALID,0,VALID,23.355,VALID,4,VALID,0.651172,
2008-03-09, 01:06:04,VALID,1004.79,VALID,0,VALID,95.628,VALID,0,VALID,23.3337,VALID,351,VALID,0.6125,
2008-03-09, 01:07:04,VALID,1004.76,VALID,0,VALID,95.5746,VALID,0,VALID,23.3355,VALID,349,VALID,0.545313,
2008-03-09, 01:08:04,VALID,1004.74,VALID,0,VALID,95.6128,VALID,0,VALID,23.3567,VALID,349,VALID,0.369922,
2008-03-09, 01:09:04,VALID,1004.69,VALID,0,VALID,95.5212,VALID,0,VALID,23.316,VALID,349,VALID,0.425,
2008-03-09, 01:10:04,VALID,1004.67,VALID,0,VALID,95.6204,VALID,0,VALID,23.316,VALID,349,VALID,0.407813,
2008-03-09, 01:11:04,VALID,1004.65,VALID,0,VALID,95.7348,VALID,0.100563,VALID,23.3355,VALID,349,VALID,0.400781,
2008-03-09, 01:12:04,VALID,1004.62,VALID,0,VALID,95.7119,VALID,0,VALID,23.3355,VALID,349,VALID,0.394922,
2008-03-09, 01:13:04,VALID,1004.61,VALID,0,VALID,95.6585,VALID,0,VALID,23.3355,VALID,349,VALID,0.398047,
2008-03-09, 01:14:04,VALID,1004.61,VALID,0,VALID,95.6662,VALID,0,VALID,23.3355,VALID,349,VALID,0.439063,
2008-03-09, 01:15:04,VALID,1004.58,VALID,0,VALID,95.6509,VALID,0,VALID,23.316,VALID,349,VALID,0.365625,
2008-03-09, 01:16:04,VALID,1004.59,VALID,0,VALID,95.6738,VALID,0,VALID,23.316,VALID,349,VALID,0.462109,
2008-03-09, 01:17:04,VALID,1004.55,VALID,0,VALID,95.6356,VALID,0,VALID,23.316,VALID,349,VALID,0.325,
2008-03-09, 01:18:04,VALID,1004.55,VALID,0,VALID,95.6662,VALID,0,VALID,23.2966,VALID,349,VALID,0.328125,
2008-03-09, 01:19:04,VALID,1004.54,VALID,0,VALID,95.567,VALID,0,VALID,23.2771,VALID,349,VALID,0.46875,
2008-03-09, 01:20:04,VALID,1004.51,VALID,0,VALID,95.6738,VALID,0,VALID,23.2577,VALID,349,VALID,0.560938,
2008-03-09, 01:21:04,VALID,1004.52,VALID,0,VALID,95.7424,VALID,0,VALID,23.2577,VALID,349,VALID,0.601563,
2008-03-09, 01:22:04,VALID,1004.48,VALID,0,VALID,95.6814,VALID,0,VALID,23.2577,VALID,349,VALID,0.408594,
2008-03-09, 01:23:04,VALID,1004.5,VALID,0,VALID,95.6585,VALID,0,VALID,23.2382,VALID,349,VALID,0.297656,
2008-03-09, 01:24:04,VALID,1004.49,VALID,0,VALID,95.7196,VALID,0,VALID,23.2382,VALID,349,VALID,0.318359,
2008-03-09, 01:25:04,VALID,1004.5,VALID,0,VALID,95.7959,VALID,0,VALID,23.2577,VALID,349,VALID,0.359375,
2008-03-09, 01:26:04,VALID,1004.52,VALID,0,VALID,95.7959,VALID,0,VALID,23.2577,VALID,349,VALID,0.373828,
2008-03-09, 01:27:04,VALID,1004.5,VALID,0,VALID,95.8416,VALID,0,VALID,23.2577,VALID,349,VALID,0.396094,
2008-03-09, 01:28:04,VALID,1004.49,VALID,0,VALID,95.8111,VALID,0,VALID,23.2364,VALID,355,VALID,0.5375,
2008-03-09, 01:29:04,VALID,1004.48,VALID,0,VALID,95.8798,VALID,0,VALID,23.2559,VALID,9,VALID,0.686719,
2008-03-09, 01:30:04,VALID,1004.51,VALID,0,VALID,95.8111,VALID,0,VALID,23.2577,VALID,9,VALID,0.447266,
2008-03-09, 01:31:04,VALID,1004.45,VALID,0,VALID,95.7348,VALID,0.100563,VALID,23.217,VALID,9,VALID,0.357812,
2008-03-09, 01:32:04,VALID,1004.47,VALID,0,VALID,95.7043,VALID,0.100563,VALID,23.2382,VALID,9,VALID,0.336719,
2008-03-09, 01:33:04,VALID,1004.47,VALID,0,VALID,95.6356,VALID,0.100563,VALID,23.1993,VALID,9,VALID,0.167969,
2008-03-09, 01:34:04,VALID,1004.46,VALID,0,VALID,95.567,VALID,0.100563,VALID,23.1798,VALID,9,VALID,0.0925781,
2008-03-09, 01:35:04,VALID,1004.44,VALID,0,VALID,95.5365,VALID,0.100563,VALID,23.1603,VALID,9,VALID,0,
2008-03-09, 01:36:04,VALID,1004.38,VALID,0,VALID,95.567,VALID,0,VALID,23.1409,VALID,9,VALID,0,
2008-03-09, 01:37:04,VALID,1004.39,VALID,0,VALID,95.567,VALID,0,VALID,23.1214,VALID,9,VALID,0,
2008-03-09, 01:38:04,VALID,1004.39,VALID,0,VALID,95.6433,VALID,0,VALID,23.1214,VALID,9,VALID,0,
2008-03-09, 01:39:04,VALID,1004.38,VALID,0,VALID,95.7119,VALID,0,VALID,23.1197,VALID,9,VALID,0,
2008-03-09, 01:40:04,VALID,1004.39,VALID,0,VALID,95.7272,VALID,0.100563,VALID,23.1391,VALID,9,VALID,0,
2008-03-09, 01:41:04,VALID,1004.39,VALID,0,VALID,95.7959,VALID,0.100563,VALID,23.1603,VALID,9,VALID,0,
2008-03-09, 01:42:04,VALID,1004.38,VALID,0,VALID,95.8264,VALID,0.100563,VALID,23.1603,VALID,9,VALID,0,
2008-03-09, 01:43:04,VALID,1004.39,VALID,0,VALID,95.8264,VALID,0,VALID,23.1798,VALID,9,VALID,0,
2008-03-09, 01:44:04,VALID,1004.36,VALID,0,VALID,95.8493,VALID,0,VALID,23.1603,VALID,9,VALID,0,
2008-03-09, 01:45:04,VALID,1004.34,VALID,0,VALID,95.8569,VALID,0,VALID,23.1798,VALID,9,VALID,0,
2008-03-09, 01:46:04,VALID,1004.33,VALID,0,VALID,95.8569,VALID,0,VALID,23.1798,VALID,9,VALID,0,
2008-03-09, 01:47:04,VALID,1004.32,VALID,0,VALID,95.8111,VALID,0.100563,VALID,23.1798,VALID,9,VALID,0,
2008-03-09, 01:48:04,VALID,1004.35,VALID,0,VALID,95.6814,VALID,0.100563,VALID,23.1391,VALID,9,VALID,0,
2008-03-09, 01:49:04,VALID,1004.36,VALID,0,VALID,95.567,VALID,0.100563,VALID,23.1002,VALID,9,VALID,0,
2008-03-09, 01:50:04,VALID,1004.37,VALID,0,VALID,95.6509,VALID,0.100563,VALID,23.1002,VALID,9,VALID,0.0234375,
2008-03-09, 01:51:04,VALID,1004.39,VALID,0,VALID,95.7806,VALID,0.100563,VALID,23.1197,VALID,16,VALID,0.669922,
2008-03-09, 01:52:04,VALID,1004.39,VALID,0,VALID,95.6814,VALID,0.100563,VALID,23.1409,VALID,18,VALID,0.561328,
2008-03-09, 01:53:04,VALID,1004.38,VALID,0,VALID,95.6204,VALID,0,VALID,23.1214,VALID,18,VALID,0.203906,
2008-03-09, 01:54:04,VALID,1004.37,VALID,0,VALID,95.628,VALID,0,VALID,23.1214,VALID,18,VALID,0.217578,
2008-03-09, 01:55:04,VALID,1004.37,VALID,0,VALID,95.5746,VALID,0,VALID,23.0613,VALID,18,VALID,0.205469,
2008-03-09, 01:56:04,VALID,1004.34,VALID,0,VALID,95.895,VALID,0.100563,VALID,23.1214,VALID,18,VALID,0,
2008-03-09, 01:57:04,VALID,1004.34,VALID,0,VALID,95.8569,VALID,0.100563,VALID,23.1409,VALID,18,VALID,0,
2008-03-09, 01:58:04,VALID,1004.33,VALID,0,VALID,95.7043,VALID,0.100563,VALID,23.1214,VALID,18,VALID,0,
2008-03-09, 01:59:04,VALID,1004.32,VALID,0,VALID,95.7577,VALID,0.100563,VALID,23.1197,VALID,18,VALID,0,
2008-03-09, 02:00:04,VALID,1004.31,VALID,0,VALID,95.7272,VALID,0,VALID,23.1002,VALID,18,VALID,0,
2008-03-09, 02:01:04,VALID,1004.34,VALID,0,VALID,95.6738,VALID,0.100563,VALID,23.1214,VALID,18,VALID,0,
2008-03-09, 02:02:04,VALID,1004.35,VALID,0,VALID,95.6738,VALID,0.100563,VALID,23.0613,VALID,18,VALID,0,
2008-03-09, 02:03:04,VALID,1004.37,VALID,0,VALID,95.773,VALID,0,VALID,23.1019,VALID,18,VALID,0,
2008-03-09, 02:04:04,VALID,1004.39,VALID,0,VALID,95.8035,VALID,0.100563,VALID,23.0807,VALID,18,VALID,0.200781,
2008-03-09, 02:05:04,VALID,1004.39,VALID,0,VALID,95.8264,VALID,0,VALID,23.0807,VALID,18,VALID,0.236719,
2008-03-09, 02:06:04,VALID,1004.4,VALID,0,VALID,95.7959,VALID,0,VALID,23.063,VALID,18,VALID,0.0414063,
2008-03-09, 02:07:04,VALID,1004.41,VALID,0,VALID,95.7501,VALID,0.100563,VALID,23.063,VALID,18,VALID,0,
2008-03-09, 02:08:04,VALID,1004.41,VALID,0,VALID,95.7501,VALID,0,VALID,23.0436,VALID,18,VALID,0,
2008-03-09, 02:09:04,VALID,1004.42,VALID,0,VALID,95.8187,VALID,0,VALID,23.0436,VALID,18,VALID,0,
2008-03-09, 02:10:04,VALID,1004.4,VALID,0,VALID,95.8035,VALID,0,VALID,23.0241,VALID,18,VALID,0,
2008-03-09, 02:11:04,VALID,1004.38,VALID,0,VALID,95.8569,VALID,0,VALID,23.0241,VALID,18,VALID,0,
2008-03-09, 02:12:04,VALID,1004.38,VALID,0,VALID,95.9637,VALID,0,VALID,23.063,VALID,18,VALID,0,
2008-03-09, 02:13:04,VALID,1004.39,VALID,0,VALID,96.0095,VALID,0,VALID,23.1037,VALID,18,VALID,0,
2008-03-09, 02:14:04,VALID,1004.39,VALID,0,VALID,95.8874,VALID,0,VALID,23.0436,VALID,16,VALID,0.0574219,
2008-03-09, 02:15:04,VALID,1004.42,VALID,0,VALID,95.7424,VALID,0,VALID,23.0453,VALID,14,VALID,0.312891,
2008-03-09, 02:16:04,VALID,1004.47,VALID,0,VALID,95.5975,VALID,0,VALID,23.0258,VALID,14,VALID,0.361328,
2008-03-09, 02:17:04,VALID,1004.46,VALID,0,VALID,95.6738,VALID,0,VALID,22.9852,VALID,14,VALID,0.235547,
2008-03-09, 02:18:04,VALID,1004.44,VALID,0,VALID,95.628,VALID,0,VALID,22.9852,VALID,14,VALID,0.380078,
2008-03-09, 02:19:04,VALID,1004.47,VALID,0,VALID,95.7272,VALID,0,VALID,22.9657,VALID,14,VALID,0.341406,
2008-03-09, 02:20:04,VALID,1004.42,VALID,0,VALID,95.7196,VALID,0,VALID,22.9463,VALID,14,VALID,0.248828,
2008-03-09, 02:21:04,VALID,1004.42,VALID,0,VALID,95.7882,VALID,0,VALID,22.9869,VALID,14,VALID,0.24375,
2008-03-09, 02:22:04,VALID,1004.41,VALID,0,VALID,95.9027,VALID,0,VALID,22.9869,VALID,14,VALID,0.269531,
2008-03-09, 02:23:04,VALID,1004.36,VALID,0,VALID,95.9027,VALID,0,VALID,23.0064,VALID,14,VALID,0.369922,
2008-03-09, 02:24:04,VALID,1004.33,VALID,0,VALID,95.8035,VALID,0,VALID,22.9852,VALID,14,VALID,0.386719,
2008-03-09, 02:25:04,VALID,1004.31,VALID,0,VALID,95.8111,VALID,0,VALID,23.0064,VALID,11,VALID,0.573438,
2008-03-09, 02:26:04,VALID,1004.31,VALID,0,VALID,95.9637,VALID,0,VALID,23.0258,VALID,10,VALID,0.569531,
2008-03-09, 02:27:04,VALID,1004.3,VALID,0,VALID,96.04,VALID,0,VALID,23.0453,VALID,10,VALID,0.496094,
2008-03-09, 02:28:04,VALID,1004.28,VALID,0,VALID,96.0476,VALID,0,VALID,23.0648,VALID,10,VALID,0.494531,
2008-03-09, 02:29:04,VALID,1004.29,VALID,0,VALID,96.1086,VALID,0,VALID,23.0842,VALID,10,VALID,0.640234,
2008-03-09, 02:30:04,VALID,1004.27,VALID,0,VALID,96.1926,VALID,0,VALID,23.1232,VALID,1,VALID,0.835547,
2008-03-09, 02:31:04,VALID,1004.26,VALID,0,VALID,96.1697,VALID,0,VALID,23.1232,VALID,360,VALID,0.710938,
2008-03-09, 02:32:04,VALID,1004.23,VALID,0,VALID,96.1163,VALID,0,VALID,23.1426,VALID,360,VALID,0.541016,
2008-03-09, 02:33:04,VALID,1004.2,VALID,0,VALID,96.101,VALID,0,VALID,23.1232,VALID,360,VALID,0.466016,
2008-03-09, 02:34:04,VALID,1004.2,VALID,0,VALID,95.9942,VALID,0,VALID,23.1037,VALID,359,VALID,0.503906,
2008-03-09, 02:35:04,VALID,1004.18,VALID,0,VALID,96.0629,VALID,0,VALID,23.1019,VALID,359,VALID,0.499609,
2008-03-09, 02:36:04,VALID,1004.18,VALID,0,VALID,96.1926,VALID,0,VALID,23.1426,VALID,359,VALID,0.428516,
2008-03-09, 02:37:04,VALID,1004.17,VALID,0,VALID,96.1926,VALID,0,VALID,23.1603,VALID,359,VALID,0.337891,
2008-03-09, 02:38:04,VALID,1004.18,VALID,0,VALID,96.1468,VALID,0,VALID,23.1391,VALID,359,VALID,0.379687,
2008-03-09, 02:39:04,VALID,1004.17,VALID,0,VALID,96.1086,VALID,0.100563,VALID,23.1603,VALID,359,VALID,0.325,
2008-03-09, 02:40:04,VALID,1004.13,VALID,0,VALID,96.101,VALID,0,VALID,23.1391,VALID,359,VALID,0.123047,
2008-03-09, 02:41:04,VALID,1004.15,VALID,0,VALID,96.0857,VALID,0,VALID,23.1603,VALID,359,VALID,0,
2008-03-09, 02:42:04,VALID,1004.12,VALID,0,VALID,96.162,VALID,0,VALID,23.1603,VALID,359,VALID,0.0414063,
2008-03-09, 02:43:04,VALID,1004.13,VALID,0,VALID,96.2002,VALID,0,VALID,23.1993,VALID,359,VALID,0,
2008-03-09, 02:44:04,VALID,1004.14,VALID,0,VALID,96.1697,VALID,0.100563,VALID,23.2187,VALID,359,VALID,0,
2008-03-09, 02:45:04,VALID,1004.1,VALID,0,VALID,96.101,VALID,0.100563,VALID,23.2187,VALID,359,VALID,0,
2008-03-09, 02:46:04,VALID,1004.14,VALID,0,VALID,96.0552,VALID,0,VALID,23.2187,VALID,359,VALID,0,
2008-03-09, 02:47:04,VALID,1004.13,VALID,0,VALID,96.0476,VALID,0,VALID,23.2187,VALID,359,VALID,0,
2008-03-09, 02:48:04,VALID,1004.12,VALID,0,VALID,96.0171,VALID,0.100563,VALID,23.1975,VALID,359,VALID,0.237109,
2008-03-09, 02:49:04,VALID,1004.07,VALID,0,VALID,95.9561,VALID,0.100563,VALID,23.2187,VALID,359,VALID,0.291016,
2008-03-09, 02:50:04,VALID,1004.1,VALID,0,VALID,95.8493,VALID,0,VALID,23.1993,VALID,359,VALID,0.255859,
2008-03-09, 02:51:04,VALID,1004.11,VALID,0,VALID,95.7959,VALID,0,VALID,23.1798,VALID,359,VALID,0.301953,
2008-03-09, 02:52:04,VALID,1004.09,VALID,0,VALID,95.7501,VALID,0.100563,VALID,23.1816,VALID,359,VALID,0.384375,
2008-03-09, 02:53:04,VALID,1004.08,VALID,0,VALID,95.7501,VALID,0.100563,VALID,23.1409,VALID,359,VALID,0.29375,
2008-03-09, 02:54:04,VALID,1004.08,VALID,0,VALID,95.8569,VALID,0,VALID,23.1409,VALID,359,VALID,0.187109,
2008-03-09, 02:55:04,VALID,1004.09,VALID,0,VALID,95.9484,VALID,0,VALID,23.1798,VALID,359,VALID,0.318359,
2008-03-09, 02:56:04,VALID,1004.12,VALID,0,VALID,95.9332,VALID,0.100563,VALID,23.1798,VALID,359,VALID,0.00976563,
2008-03-09, 02:57:04,VALID,1004.14,VALID,0,VALID,95.895,VALID,0.100563,VALID,23.1603,VALID,359,VALID,0,
2008-03-09, 02:58:04,VALID,1004.14,VALID,0,VALID,95.8493,VALID,0.100563,VALID,23.1603,VALID,359,VALID,0,
2008-03-09, 02:59:04,VALID,1004.14,VALID,0,VALID,95.8111,VALID,0,VALID,23.1409,VALID,359,VALID,0,
2008-03-09, 03:00:04,VALID,1004.12,VALID,0,VALID,95.9179,VALID,0,VALID,23.1409,VALID,359,VALID,0,
2008-03-09, 03:01:04,VALID,1004.09,VALID,0,VALID,95.895,VALID,0,VALID,23.1603,VALID,359,VALID,0,
2008-03-09, 03:02:04,VALID,1004.06,VALID,0,VALID,95.895,VALID,0,VALID,23.1197,VALID,359,VALID,0,
2008-03-09, 03:03:04,VALID,1004.05,VALID,0,VALID,96.1086,VALID,0,VALID,23.1798,VALID,359,VALID,0,
2008-03-09, 03:04:04,VALID,1004.05,VALID,0,VALID,96.2002,VALID,0,VALID,23.2382,VALID,359,VALID,0.165625,
2008-03-09, 03:05:04,VALID,1004.03,VALID,0,VALID,96.2078,VALID,0.100563,VALID,23.2577,VALID,5,VALID,0.449219,
2008-03-09, 03:06:04,VALID,1004.01,VALID,0,VALID,96.1544,VALID,0.100563,VALID,23.2771,VALID,7,VALID,0.401563,
2008-03-09, 03:07:04,VALID,1004.01,VALID,0,VALID,96.1392,VALID,0,VALID,23.2771,VALID,7,VALID,0.274219,
2008-03-09, 03:08:04,VALID,1004,VALID,0,VALID,95.9484,VALID,0,VALID,23.2594,VALID,6,VALID,0.193359,
2008-03-09, 03:09:04,VALID,1004,VALID,0,VALID,95.8874,VALID,0,VALID,23.2187,VALID,6,VALID,0.180469,
2008-03-09, 03:10:04,VALID,1003.99,VALID,0,VALID,95.895,VALID,0,VALID,23.2187,VALID,6,VALID,0,
2008-03-09, 03:11:04,VALID,1004,VALID,0,VALID,95.9332,VALID,0,VALID,23.2187,VALID,6,VALID,0,
2008-03-09, 03:12:04,VALID,1003.97,VALID,0,VALID,95.9332,VALID,0,VALID,23.2382,VALID,6,VALID,0,
2008-03-09, 03:13:04,VALID,1004,VALID,0,VALID,95.8569,VALID,0,VALID,23.2187,VALID,6,VALID,0,
2008-03-09, 03:14:04,VALID,1003.98,VALID,0,VALID,95.8187,VALID,0.100563,VALID,23.2187,VALID,6,VALID,0,
2008-03-09, 03:15:04,VALID,1003.99,VALID,0,VALID,96.0857,VALID,0,VALID,23.2187,VALID,6,VALID,0,
2008-03-09, 03:16:04,VALID,1003.96,VALID,0,VALID,96.1849,VALID,0,VALID,23.2771,VALID,6,VALID,0,
2008-03-09, 03:17:04,VALID,1003.97,VALID,0,VALID,96.1392,VALID,0.100563,VALID,23.2966,VALID,6,VALID,0,
2008-03-09, 03:18:04,VALID,1003.96,VALID,0,VALID,96.1163,VALID,0.100563,VALID,23.2966,VALID,6,VALID,0,
2008-03-09, 03:19:04,VALID,1003.99,VALID,0,VALID,96.0171,VALID,0,VALID,23.316,VALID,6,VALID,0,
2008-03-09, 03:20:04,VALID,1003.98,VALID,0,VALID,95.9637,VALID,0.100563,VALID,23.2966,VALID,6,VALID,0,
2008-03-09, 03:21:04,VALID,1003.98,VALID,0,VALID,95.8721,VALID,0.100563,VALID,23.2771,VALID,6,VALID,0,
2008-03-09, 03:22:04,VALID,1003.99,VALID,0,VALID,95.895,VALID,0,VALID,23.2364,VALID,6,VALID,0,
2008-03-09, 03:23:04,VALID,1003.99,VALID,0,VALID,95.9027,VALID,0,VALID,23.2594,VALID,6,VALID,0,
2008-03-09, 03:24:04,VALID,1003.96,VALID,0,VALID,95.8874,VALID,0,VALID,23.2577,VALID,6,VALID,0,
2008-03-09, 03:25:04,VALID,1003.94,VALID,0,VALID,95.9027,VALID,0,VALID,23.2382,VALID,6,VALID,0,
2008-03-09, 03:26:04,VALID,1003.94,VALID,0,VALID,95.9103,VALID,0,VALID,23.2382,VALID,6,VALID,0,
2008-03-09, 03:27:04,VALID,1003.92,VALID,0,VALID,95.9027,VALID,0,VALID,23.2187,VALID,7,VALID,0.521094,
2008-03-09, 03:28:04,VALID,1003.94,VALID,0,VALID,95.8798,VALID,0,VALID,23.2205,VALID,10,VALID,0.518359,
2008-03-09, 03:29:04,VALID,1003.93,VALID,0,VALID,95.6128,VALID,0,VALID,23.1409,VALID,10,VALID,0.708203,
2008-03-09, 03:30:04,VALID,1003.93,VALID,0,VALID,95.6204,VALID,0,VALID,23.1019,VALID,10,VALID,0.542969,
2008-03-09, 03:31:04,VALID,1003.93,VALID,0,VALID,95.5136,VALID,0,VALID,23.0648,VALID,10,VALID,0.630469,
2008-03-09, 03:32:04,VALID,1003.92,VALID,0,VALID,95.4983,VALID,0,VALID,23.0046,VALID,10,VALID,0.374609,
2008-03-09, 03:33:04,VALID,1003.87,VALID,0,VALID,95.7653,VALID,0,VALID,23.0046,VALID,10,VALID,0.429688,
2008-03-09, 03:34:04,VALID,1003.84,VALID,0,VALID,96.2688,VALID,0,VALID,23.0613,VALID,359,VALID,0.590625,
2008-03-09, 03:35:04,VALID,1003.79,VALID,0,VALID,96.307,VALID,0,VALID,23.1409,VALID,357,VALID,0.424609,
2008-03-09, 03:36:04,VALID,1003.74,VALID,0,VALID,96.2307,VALID,0,VALID,23.1603,VALID,353,VALID,0.421484,
2008-03-09, 03:37:04,VALID,1003.76,VALID,0,VALID,96.0705,VALID,0,VALID,23.1409,VALID,353,VALID,0.458984,
2008-03-09, 03:38:04,VALID,1003.72,VALID,0,VALID,96.0095,VALID,0,VALID,23.1019,VALID,353,VALID,0.555859,
2008-03-09, 03:39:04,VALID,1003.72,VALID,0,VALID,95.9866,VALID,0,VALID,23.1019,VALID,353,VALID,0.540625,
2008-03-09, 03:40:04,VALID,1003.7,VALID,0,VALID,95.9866,VALID,0,VALID,23.0825,VALID,353,VALID,0.521875,
2008-03-09, 03:41:04,VALID,1003.73,VALID,0,VALID,96.0476,VALID,0,VALID,23.0825,VALID,353,VALID,0.628516,
2008-03-09, 03:42:04,VALID,1003.73,VALID,0,VALID,96.0857,VALID,0,VALID,23.1019,VALID,353,VALID,0.463281,
2008-03-09, 03:43:04,VALID,1003.73,VALID,0,VALID,96.0323,VALID,0,VALID,23.063,VALID,353,VALID,0.395703,
2008-03-09, 03:44:04,VALID,1003.78,VALID,0,VALID,96.0476,VALID,0,VALID,23.063,VALID,353,VALID,0.363672,
2008-03-09, 03:45:04,VALID,1003.77,VALID,0,VALID,96.1239,VALID,0,VALID,23.063,VALID,353,VALID,0.346484,
2008-03-09, 03:46:04,VALID,1003.81,VALID,0,VALID,96.2765,VALID,0,VALID,23.0825,VALID,353,VALID,0.370703,
2008-03-09, 03:47:04,VALID,1003.79,VALID,0,VALID,96.3833,VALID,0,VALID,23.1603,VALID,353,VALID,0.307813,
2008-03-09, 03:48:04,VALID,1003.78,VALID,0,VALID,96.2917,VALID,0,VALID,23.1603,VALID,353,VALID,0.00195313,
2008-03-09, 03:49:04,VALID,1003.79,VALID,0,VALID,96.1773,VALID,0,VALID,23.1409,VALID,353,VALID,0,
2008-03-09, 03:50:04,VALID,1003.81,VALID,0,VALID,96.1239,VALID,0,VALID,23.1214,VALID,353,VALID,0,
2008-03-09, 03:51:04,VALID,1003.76,VALID,0,VALID,96.0705,VALID,0,VALID,23.1232,VALID,353,VALID,0,